Home > Time Zones > World Clock > Weather > Norway > Moss > Past weeks

Flag for Norway Weather past 2 weeks in Moss, Norway

Now
55 °F

Fog.


Feels Like: 55 °F
Forecast: 56 / 67 °F
Wind: 5 mph from Southeast

Location: Rygge

Current Time: Sep 3, 2014 at 3:25:30 AM

Latest Report: Sep 3, 2014 at 2:50 AM


Visibility: 0 mi

Pressure: 30.30 "Hg

Humidity: 100%

Dew point: 55 °F

Location of MossLocation

Historic Weather in Moss — Graph

°F

Moss temperature yesterday

Maximum temperature yesterday: 66 °F (at 2:50 PM)
Minimum temperature yesterday: 55 °F (at 12:20 AM)
Average temperature yesterday: 60 °F

Past Weeks' High & Low Weather Summary

 TemperatureHumidityPressure
High70 °F (Aug 28, 5:20 PM)100% (Aug 19, 4:50 AM)30.30 "Hg (Aug 19, 4:50 AM)
Low45 °F (Aug 24, 6:50 AM)38% (Aug 27, 4:20 PM)29.21 "Hg (Aug 19, 1:20 AM)
Average57 °F78%29.80 "Hg
* Reported Aug 19 1:20 AM — Sep 3 1:50 AM, Moss, Weather by CustomWeather, © 2014

Note: Actual official high and low records may vary slightly from our data, if they occured in-between our weather recording intervals... More about our weather records

Advertising

Moss weather history for previous 24 hours

 ConditionsComfort  
Time TempWeatherWind HumidityBarometerVisibility
1:50 AM
Sep 3
54 °FFog.3 mph100%30.30 "Hg0 mi
1:20 AM55 °FFog.6 mph94%30.30 "Hg0 mi
12:50 AM57 °FFog.3 mph94%30.27 "Hg2 mi
12:20 AM57 °FFog.3 mph100%30.27 "Hg2 mi
11:50 PM
Sep 2
59 °FClear.7 mph94%30.27 "Hg10 mi
11:20 PM59 °FClear.7 mph94%30.27 "Hg10 mi
10:50 PM59 °FClear.7 mph94%30.27 "Hg10 mi
10:20 PM59 °FClear.6 mph94%30.27 "Hg10 mi
9:50 PM59 °FClear.5 mph94%30.27 "Hg10 mi
8:50 PM61 °FPassing clouds.8 mph88%30.24 "HgN/A
8:20 PM61 °FSunny.9 mph94%30.24 "Hg10 mi
7:50 PM63 °FPassing clouds.10 mph88%30.24 "HgN/A
7:20 PM63 °FPassing clouds.10 mph88%30.24 "HgN/A
6:50 PM64 °FSunny.12 mph83%30.24 "Hg10 mi
6:20 PM63 °FPassing clouds.12 mph83%30.24 "HgN/A
5:50 PM64 °FScattered clouds.15 mph78%30.24 "HgN/A
5:20 PM64 °FScattered clouds.16 mph78%30.24 "HgN/A
4:50 PM66 °FSunny.12 mph78%30.24 "Hg10 mi
4:20 PM64 °FSunny.12 mph78%30.24 "Hg10 mi
3:50 PM64 °FPassing clouds.12 mph78%30.24 "HgN/A
3:20 PM66 °FPartly sunny.12 mph73%30.24 "HgN/A
2:50 PM66 °FSunny.10 mph73%30.24 "Hg10 mi
2:20 PM64 °FScattered clouds.10 mph73%30.24 "HgN/A
1:50 PM64 °FPassing clouds.10 mph78%30.24 "HgN/A
1:20 PM64 °FPassing clouds.12 mph73%30.24 "HgN/A
12:50 PM64 °FScattered clouds.9 mph73%30.24 "HgN/A
12:20 PM64 °FScattered clouds.9 mph73%30.24 "HgN/A
11:50 AM63 °FScattered clouds.9 mph77%30.24 "HgN/A
11:20 AM63 °FScattered clouds.9 mph77%30.24 "HgN/A
10:50 AM63 °FPassing clouds.9 mph77%30.24 "HgN/A
10:20 AM61 °FScattered clouds.7 mph83%30.21 "HgN/A
9:20 AM59 °FPassing clouds.3 mph82%30.21 "HgN/A
8:50 AM57 °FSunny.5 mph88%30.21 "Hg10 mi
8:20 AM55 °FSunny.6 mph94%30.21 "Hg10 mi
7:50 AM55 °FSunny.5 mph94%30.21 "Hg10 mi
7:20 AM55 °FPartly sunny.5 mph88%30.21 "HgN/A
6:50 AM55 °FPartly cloudy.5 mph88%30.18 "HgN/A
6:20 AM55 °FPartly cloudy.5 mph88%30.18 "HgN/A
5:50 AM55 °FPassing clouds.3 mph88%30.18 "HgN/A
5:20 AM55 °FLight rain. Mostly cloudy.3 mph88%30.18 "HgN/A
4:50 AM55 °FMostly cloudy.3 mph88%30.18 "HgN/A
4:20 AM55 °FMostly cloudy.5 mph82%30.18 "HgN/A
3:50 AM55 °FLight rain. Overcast.5 mph88%30.21 "HgN/A
3:20 AM55 °FPartly cloudy.3 mph88%30.18 "HgN/A
Weather by CustomWeather, © 2014

See weather overviewHow to use our weather pages